NOAA 16 DEB, 41528

Orbit data source: Space-Track

NOAA 16 DEB, 41528 is space debris in SSO originally from a launch on Thu, 21 Sep 2000 UTC launched from the Air Force Western Test Range (AFWTR). Debris objects in space refer to the collection of defunct objects orbiting the Earth. Examples of debris include non-operational satellites, rocket bodies, and fragments generated from explosions, collisions, or faulty payload assembly.

Loading next visibility...
Identifier
41528, 2000-055NC
Orbit
SSO
Country
Flag of USUS
Related business
Manufacturer
Unknown
Mission
Spacecraft
Bus & Motor
Unknown
Mass
Unknown
Launch date (UTC)
2000-09-21 (25 years ago)
Launch vehicle
Unknown
Launch site
Air Force Western Test Range (AFWTR)
Object type
Payload
Rocket body
Debris
Shape & HBR
Unknown shape, 0.1 m
Radar Cross Section
Small (<0.1 m²)

Expand to show TLE details & history
Last TLE update: 2 days ago

TLE from 2 days ago
0 NOAA 16 DEB
1 41528U 00055NC  25340.62365049  .00631249  00000-0  26428-1 0  9997
2 41528  98.7343 107.1288 0021692 298.4172  61.4873 15.20911996505479
Epoch: 2025-12-06T14:58Z
TLE epoch observation values (Epoch: 2025-12-06T14:58:03.402Z)
Latitude
-0.00004°
Longitude
166.9659°
Altitude
499.037 km
Speed
7.619 km/s
True Right ascension
07h 08m 30s
True Declination
0° 00' 00"
Sunlit
Object was in full shadow at epoch
Visualization orbit readout
Latitude
Unknown
Longitude
Unknown
Altitude
Unknown
Speed
Unknown
Apparent Right ascension
Unknown
Apparent Declination
Unknown
Sunlit
N/A
Visualization observer readout
Local Sidereal Time
01:32:36
Azimuth
Unknown
Elevation
Unknown
Doppler factor
Unknown
Orbital elements
Apogee altitude
515.035 km
Perigee altitude
485.195 km
Semi-major axis
6,878.252 km
Eccentricity
0.00217
Inclination
98.7343°
RAAN
107.1288°
Arg. of periapsis
298.4172°
True anomaly
61.70601°
Mean anomaly
61.4873°
Eccentric anomaly
61.59662°
Mean motion
3.80475 °/min
Orbital period
94.62 mins
BSTAR
0.026428
Loading maneuver chart data...
Computing Atmospheric mass density...
Loading historical data...
Loading historical data...
Loading historical data...
Loading historical data...
Loading historical data...
Loading historical data...
Loading historical data...

Documentation

Showing up to 5 results
|